Weather in Braslavskaya Luka

Belarus     55°25′17″N   26°51′26″E
temp.,
°C
wind,
m/s
gust,
m/s
humid.,
%
clouds,
%
prec.,
mm/h
press.,
hPa
HPBL,
m
16 june, wed
wed1600:00+11wnw38895 0.0 1015151
03:00+9nnw389357 0.0 1017148
06:00+8nnw388690 0.0 1018189
09:00+14n34665 0.0 1019488
12:00+18n224860 0.0 10191242
15:00+20nnw234364 0.0 10191541
18:00+20n224645 0.0 10191428
21:00+15nne22687 0.0 102019
17 june, thu
thu1700:00+11nnw127021 0.0 102210
03:00+10ne22765 0.0 102311
06:00+11ne11760 0.0 102410
09:00+17e12610 0.0 1024330
12:00+21ese23504 0.0 10251105
15:00+23s23472 0.0 10241496
18:00+23s225351 0.0 10241014
21:00+18e227694 0.0 102414
18 june, fri
fri1800:00+15se228124 0.0 102523
03:00+13sse22919 0.0 102518
06:00+14sse25905 0.0 102699
09:00+20sse35675 0.0 1025380
12:00+23s34545 0.0 10251140
15:00+25s34505 0.0 10241468
18:00+25sse34575 0.0 10231125
21:00+20sse35805 0.0 102395
19 june, sat
sat1900:00+16sse23895 0.0 102432
03:00+14s34912 0.0 102453
06:00+14sse36890 0.0 1024120
09:00+20s46710 0.0 1024437
12:00+24s45590 0.0 10231094
15:00+26s45530 0.0 10221419
18:00+25sse45590 0.0 10211049
21:00+21sse35830 0.0 102194
20 june, sun
sun2000:00+17s349177 0.0 102154
03:00+16sse3794100 0.0 1021118
06:00+17s38930 0.0 1021201
09:00+22s45750 0.0 1020464
12:00+25s45671 0.6 10201016
15:00+25sse356953 3.1 1019955
18:00+25se35711 0.9 1018542
21:00+21s37874 1.1 1018170